This is the latest recevied weather packets stored in our database for station/object PAMR. If no packets are shown the sender has not sent any weather packets the latest 1 day(s).
| Time | Temp. | Humidity | Pressure | Rain* | Wind** | Luminosity | Snow |
|---|---|---|---|---|---|---|---|
| 1778052824 | 7.78° C | 49% | 1007.8 hPa | - | - | - | - |
| 1778052225 | 7.78° C | 49% | 1007.8 hPa | - | - | - | - |
| 1778051026 | 7.78° C | 49% | 1007.8 hPa | - | - | - | - |
| 1778049230 | 7.78° C | 49% | 1007.1 hPa | - | - | - | - |
| 1778048023 | 7.78° C | 49% | 1007.1 hPa | - | - | - | - |
| 1778047428 | 7.78° C | 49% | 1007.1 hPa | - | - | - | - |
| 1778046825 | 8.89° C | 45% | 1006.8 hPa | - | - | - | - |
| 1778045622 | 8.89° C | 45% | 1006.8 hPa | - | - | - | - |
| 1778043826 | 8.89° C | 45% | 1006.8 hPa | - | - | - | - |
| 1778043223 | 10.56° C | 43% | 1006.1 hPa | - | - | - | - |
| 1778042025 | 10.56° C | 43% | 1006.1 hPa | - | - | - | - |
| 1778041425 | 10.56° C | 43% | 1006.1 hPa | - | - | - | - |
| 1778040827 | 10.56° C | 43% | 1006.1 hPa | - | - | - | - |
| 1778040345 | 10.56° C | 43% | 1006.1 hPa | - | - | - | - |
| 1778039622 | 10.56° C | 50% | 1005.4 hPa | - | - | - | - |
| 1778039030 | 10.56° C | 50% | 1005.4 hPa | - | - | - | - |
| 1778037827 | 10.56° C | 50% | 1005.4 hPa | - | - | - | - |
| 1778036622 | 10.56° C | 50% | 1005.4 hPa | - | - | - | - |
| 1778036023 | 11.67° C | 40% | 1005.4 hPa | - | - | - | - |
| 1778035423 | 11.67° C | 40% | 1005.4 hPa | - | - | - | - |
| 1778034822 | 11.67° C | 40% | 1005.4 hPa | - | - | - | - |
| 1778033624 | 11.67° C | 40% | 1005.1 hPa | - | - | - | - |
| 1778033025 | 11.67° C | 40% | 1005.1 hPa | - | - | - | - |
| 1778032425 | 10.56° C | 53% | 1005.4 hPa | - | - | - | - |
| 1778031224 | 10.56° C | 53% | 1005.4 hPa | - | - | - | - |
* Rain since midnight (hover to see other rain measurements)
** Current wind speed in m/s (hover to see current wind gust speed)